Ames, IA

3:48 AM CST on December 06, 2016 (GMT -0600)
Ames Municipal

Weather History for KAMW - November, 2013

Change the Weather History Date:

Monday, November 11, 2013

  Actual Average Record
Temperature  
Mean Temperature 31 °F 39 °F  
Max Temperature 45 °F 49 °F 68 °F (2007)
Min Temperature 16 °F 29 °F 15 °F (1997)
Degree Days  
Heating Degree Days 34 26  
Month to date heating degree days 262 259  
Since 1 July heating degree days 802 855  
Cooling Degree Days 0 0  
Month to date cooling degree days 0 0  
Year to date cooling degree days 913 752  
Moisture  
Dew Point 22 °F    
Average Humidity 70    
Maximum Humidity 82    
Minimum Humidity 58    
Precipitation  
Precipitation T in 0.07 in 0.71 in (2012)
Month to date precipitation 1.13 0.99  
Sea Level Pressure  
Sea Level Pressure 30.39 in    
Wind  
Wind Speed 16 mph (NNW)    
Max Wind Speed 31 mph    
Max Gust Speed 36 mph    
Visibility 7 miles    
Events Snow    
T = Trace of Precipitation, MM = Missing Value Source: NWS Daily Summary

Daily Weather History Graph

Daily Weather History Graph

Search for Another Location

Airport or City:

Trip Planner

Search our weather history database for the weather conditions in past years. The results will help you decide how hot, cold, wet, or windy it might be!

Date:

Astronomy

Nov. 11, 2013 Rise Set
Actual Time 6:59 AM CST 4:56 PM CST
Civil Twilight 6:30 AM CST 5:26 PM CST
Nautical Twilight 5:56 AM CST 6:00 PM CST
Astronomical Twilight 5:23 AM CST 6:32 PM CST
Moon 1:43 PM CST (11/11) 12:39 AM CST (11/11)
Length of Visible Light 10h 56m
Length of Day
9h 57m
Waxing Gibbous, 66% of the Moon is Illuminated
Nov 11
Waxing Gibbous
Nov 17
Full
Nov 25
Last Quarter
Dec 2
New
Dec 9
First Quarter

Hourly Weather History & Observations

Time (CST) Temp. Windchill Dew Point Humidity Pressure Visibility Wind Dir Wind Speed Gust Speed Precip Events Conditions
12:53 AM 39.9 °F 35.8 °F 30.9 °F 70% 30.14 in 10.0 mi SSW 5.8 mph - N/A   Partly Cloudy
1:53 AM 37.0 °F 32.4 °F 30.9 °F 79% 30.13 in 10.0 mi SW 5.8 mph - N/A   Clear
2:53 AM 36.0 °F 30.3 °F 30.9 °F 82% 30.12 in 10.0 mi SW 6.9 mph - N/A   Scattered Clouds
3:53 AM 37.9 °F 30.5 °F 32.0 °F 79% 30.09 in 10.0 mi SW 11.5 mph - N/A   Clear
4:53 AM 39.0 °F 30.6 °F 33.1 °F 79% 30.14 in 10.0 mi NNW 15.0 mph - N/A   Mostly Cloudy
5:53 AM 39.0 °F 30.3 °F 32.0 °F 76% 30.16 in 10.0 mi North 16.1 mph - N/A   Overcast
6:53 AM 39.0 °F 31.4 °F 30.0 °F 70% 30.18 in 10.0 mi North 12.7 mph 23.0 mph N/A   Overcast
7:53 AM 37.0 °F 27.7 °F 30.9 °F 79% 30.25 in 10.0 mi North 16.1 mph 27.6 mph N/A   Overcast
8:30 AM 37.0 °F 25.9 °F 30.9 °F 79% 30.26 in 10.0 mi North 23.0 mph 29.9 mph N/A   Overcast
8:53 AM 37.0 °F 27.4 °F 30.9 °F 79% 30.28 in 10.0 mi North 17.3 mph 26.5 mph N/A   Overcast
9:53 AM 34.0 °F 22.4 °F 25.0 °F 70% 30.32 in 10.0 mi North 20.7 mph 31.1 mph N/A   Overcast
10:05 AM 33.1 °F 20.9 °F 26.1 °F 75% 30.31 in 10.0 mi North 21.9 mph - N/A   Overcast
10:53 AM 33.1 °F 20.9 °F 25.0 °F 72% 30.35 in 10.0 mi North 21.9 mph 27.6 mph N/A   Mostly Cloudy
11:29 AM 30.0 °F 16.3 °F 24.1 °F 79% 30.38 in 2.5 mi North 24.2 mph 28.8 mph 0.00 in Snow Light Snow
11:34 AM 28.0 °F 14.3 °F 24.1 °F 85% 30.37 in 0.8 mi North 21.9 mph 28.8 mph 0.00 in Snow Light Snow
11:43 AM 28.0 °F 15.7 °F 25.0 °F 88% 30.38 in 1.0 mi North 17.3 mph 24.2 mph 0.00 in Snow Light Snow
11:53 AM 27.0 °F 12.8 °F 23.0 °F 85% 30.40 in 2.0 mi North 21.9 mph 28.8 mph 0.00 in Snow Light Snow
11:59 AM 27.0 °F 15.2 °F 23.0 °F 85% 30.38 in 4.0 mi North 15.0 mph 28.8 mph 0.00 in Snow Light Snow
12:12 PM 27.0 °F 13.9 °F 23.0 °F 85% 30.38 in 5.0 mi North 18.4 mph 26.5 mph 0.00 in   Overcast
12:20 PM 27.0 °F 14.3 °F 23.0 °F 85% 30.39 in 1.5 mi North 17.3 mph 25.3 mph 0.00 in Snow Light Snow
12:26 PM 26.1 °F 12.7 °F 21.9 °F 84% 30.39 in 0.8 mi North 18.4 mph 28.8 mph 0.00 in Snow Light Snow
12:42 PM 26.1 °F 13.6 °F 21.9 °F 84% 30.39 in 1.8 mi North 16.1 mph - 0.00 in Snow Light Snow
12:51 PM 26.6 °F 14.7 °F 21.2 °F 80% 30.39 in 2.0 mi North 15.0 mph - 0.00 in Snow Light Snow
12:53 PM 26.1 °F 13.6 °F 21.9 °F 84% 30.42 in 2.5 mi North 16.1 mph - 0.00 in Snow Light Snow
1:02 PM 27.0 °F 13.5 °F 21.9 °F 81% 30.39 in 4.0 mi NNW 19.6 mph 25.3 mph 0.00 in Snow Light Snow
1:27 PM 26.1 °F 12.3 °F 19.9 °F 78% 30.40 in 1.8 mi North 19.6 mph 26.5 mph 0.00 in Snow Light Snow
1:45 PM 26.1 °F 13.1 °F 21.0 °F 81% 30.41 in 3.0 mi North 17.3 mph 24.2 mph 0.00 in Snow Light Snow
1:53 PM 27.0 °F 12.5 °F 19.9 °F 75% 30.43 in 9.0 mi North 23.0 mph 29.9 mph 0.00 in   Overcast
2:45 PM 27.0 °F 12.8 °F 19.9 °F 75% 30.43 in 10.0 mi North 21.9 mph 32.2 mph N/A   Overcast
2:53 PM 27.0 °F 12.2 °F 19.0 °F 72% 30.46 in 10.0 mi North 24.2 mph - N/A   Overcast
3:13 PM 26.1 °F 12.3 °F 19.0 °F 75% 30.44 in 10.0 mi North 19.6 mph 29.9 mph N/A   Mostly Cloudy
3:46 PM 26.1 °F 13.1 °F 18.0 °F 71% 30.46 in 10.0 mi North 17.3 mph 27.6 mph N/A   Mostly Cloudy
3:53 PM 26.1 °F 12.0 °F 19.0 °F 75% 30.49 in 10.0 mi NNW 20.7 mph 26.5 mph N/A   Mostly Cloudy
4:53 PM 24.1 °F 10.1 °F 17.1 °F 75% 30.52 in 10.0 mi North 18.4 mph 27.6 mph N/A   Overcast
5:53 PM 23.0 °F 8.7 °F 15.1 °F 72% 30.57 in 10.0 mi North 18.4 mph 25.3 mph N/A   Scattered Clouds
6:53 PM 21.9 °F 7.3 °F 15.1 °F 75% 30.61 in 10.0 mi NNW 18.4 mph - N/A   Partly Cloudy
7:53 PM 19.9 °F 6.2 °F 12.9 °F 74% 30.64 in 10.0 mi North 15.0 mph - N/A   Clear
8:53 PM 19.0 °F 5.6 °F 12.0 °F 74% 30.66 in 10.0 mi North 13.8 mph - N/A   Clear
9:53 PM 18.0 °F 3.1 °F 10.9 °F 74% 30.71 in 10.0 mi North 16.1 mph - N/A   Clear
10:53 PM 17.1 °F 5.0 °F 10.0 °F 74% 30.73 in 10.0 mi North 10.4 mph - N/A   Clear
11:53 PM 16.0 °F 2.9 °F 9.0 °F 74% 30.75 in 10.0 mi North 11.5 mph - N/A   Clear